Location: Béaulencourt
(50.0796°N, 2.8795°E)
Time: 02:44:29
(UTC+00:00)

ACS3 Solar Sail - Visible Passes

Search period start: 09 March 2026 00:00
Search period end: 19 March 2026 00:00
Orbit: 887 x 973 km, 97.2° (Epoch: 8 March)

Date Brightness Start Highest point End Pass type
(mag) Time Alt. Az. Time Alt. Az. Time Alt. Az.
9 Mar 4.2 00:24:10 10° NE 00:25:04 13° NE 00:25:04 13° NE visible
9 Mar 3.1 02:05:57 10° N 02:08:46 30° N 02:08:46 30° N visible
9 Mar 3.5 03:50:17 10° NNW 03:52:27 14° NW 03:52:27 14° NW visible
10 Mar 4.0 00:35:19 10° NNE 00:36:45 16° NE 00:36:45 16° NE visible
10 Mar 3.0 02:17:27 10° N 02:20:26 31° N 02:20:26 31° N visible
10 Mar 3.6 04:02:23 10° NNW 04:04:07 12° NW 04:04:07 12° NW visible
11 Mar 3.8 00:46:28 10° NNE 00:48:21 19° NE 00:48:21 19° NE visible
11 Mar 3.0 02:28:54 10° N 02:32:03 31° NNW 02:32:03 31° NNW visible
12 Mar 3.7 00:57:37 10° NNE 00:59:54 23° NE 00:59:54 23° NE visible
12 Mar 3.0 02:40:18 10° N 02:43:35 29° NNW 02:43:35 29° NNW visible
13 Mar 3.4 01:08:45 10° NNE 01:11:22 27° NE 01:11:22 27° NE visible
13 Mar 3.0 02:51:40 10° N 02:55:03 27° NW 02:55:03 27° NW visible
14 Mar 3.2 01:19:50 10° NNE 01:22:47 31° NNE 01:22:47 31° NNE visible
14 Mar 3.1 03:03:01 10° N 03:06:27 25° NW 03:06:27 25° NW visible
15 Mar 3.0 01:30:53 10° NNE 01:34:06 35° NNE 01:34:06 35° NNE visible
15 Mar 3.2 03:14:19 10° N 03:17:47 22° NW 03:17:47 22° NW visible
16 Mar 4.2 00:00:49 10° NE 00:01:43 13° NE 00:01:43 13° NE visible
16 Mar 2.8 01:41:55 10° NNE 01:45:22 39° NNE 01:45:22 39° NNE visible
16 Mar 3.3 03:25:36 10° NNW 03:29:02 19° NW 03:29:02 19° NW visible
17 Mar 4.0 00:11:19 10° NE 00:12:55 15° NE 00:12:55 15° NE visible
17 Mar 2.7 01:52:52 10° N 01:56:34 41° N 01:56:34 41° N visible
17 Mar 3.4 03:36:54 10° NNW 03:40:13 16° NW 03:40:13 16° NW visible
18 Mar 3.8 00:21:53 10° NE 00:24:02 19° NE 00:24:02 19° NE visible
18 Mar 2.5 02:03:48 10° N 02:07:42 42° NNW 02:07:42 42° NNW visible
18 Mar 3.5 03:48:15 10° NNW 03:50:58 14° NW 03:51:21 14° NW visible
